Location: *
(51.8167°N, 12.5000°E)
Time: 12:32:59
(UTC+00:00)

Cosmos 1707 - Pass Details

Date: 16 September 2019
Orbit: 517 x 530 km, 82.5° (Epoch: 16 October)

Event Time Altitude Azimuth Distance (km) Brightness Sun altitude
Rises 18:50:25 0° 348° (NNW) 2,681 6.8 -13.9°
Reaches altitude 10° 18:52:35 10° 348° (NNW) 1,788 5.9 -14.2°
Maximum altitude 18:56:31 83° 261° (W) 542 2.8 -14.7°
Drops below altitude 10° 19:00:25 10° 174° (S) 1,776 5.1 -15.3°
Enters shadow 19:00:27 10° 174° (S) 1,789 5.1 -15.3°
